GW0870 Weather Reports


time (UTC)temp
C
wind
direction
speed
KPH
gust
KPH
rain 1hr
cm
rain 24hr
cm
rain mn
cm
humidity
%
barometer
mb
20260905101552 22 0 0.0 0.0 0.00 0.00 0.00 93 1012.9
20260905100105 22 0 0.0 0.0 0.00 0.00 0.00 93 1012.6
20260905094605 22 0 0.0 0.0 0.00 0.00 0.00 93 1012.7
20260905093102 22 0 0.0 1.6 0.00 0.00 0.00 93 1012.8
20260905091600 22 0 0.0 0.0 0.00 0.00 0.00 92 1012.9
20260905090057 22 0 0.0 0.0 0.00 0.00 0.00 92 1012.9
20260905084555 23 0 0.0 0.0 0.00 0.00 0.00 92 1012.9
20260905083049 23 0 0.0 0.0 0.00 0.00 0.00 91 1013.1
20260905081611 23 0 0.0 1.6 0.00 0.00 0.00 91 1013.2
20260905080057 23 0 0.0 0.0 0.00 0.00 0.00 91 1013.2
20260905074603 23 0 0.0 1.6 0.00 0.00 0.00 91 1013.3
20260905073100 23 0 0.0 1.6 0.00 0.00 0.00 91 1013.2
20260905071601 23 0 0.0 0.0 0.00 0.00 0.00 91 1013.4
20260905070055 23 0 0.0 0.0 0.00 0.00 0.00 91 1013.5
20260905064557 24 0 0.0 0.0 0.00 0.00 0.00 91 1013.8
20260905063105 24 0 0.0 0.0 0.00 0.00 0.00 91 1014.1
20260905061609 24 0 0.0 0.0 0.00 0.00 0.00 92 1014.3
20260905060053 24 0 0.0 0.0 0.00 0.00 0.00 92 1014.5
20260905054559 24 0 0.0 0.0 0.00 0.00 0.00 91 1014.6
20260905053057 24 0 0.0 0.0 0.00 0.00 0.00 91 1014.7
20260905051556 24 0 0.0 0.0 0.00 0.00 0.00 91 1014.9
20260905050053 24 0 0.0 0.0 0.00 0.00 0.00 90 1014.9
20260905044600 24 0 0.0 0.0 0.00 0.00 0.00 90 1015.0
20260905043115 25 0 0.0 0.0 0.00 0.00 0.00 90 1015.0
20260905041555 25 0 0.0 0.0 0.00 0.00 0.00 89 1015.0
20260905040115 25 0 0.0 0.0 0.00 0.00 0.00 89 1014.7
20260905034558 25 0 0.0 0.0 0.00 0.00 0.00 88 1014.7
20260905033102 25 0 0.0 0.0 0.00 0.00 0.00 87 1014.7
20260905031600 26 0 0.0 0.0 0.00 0.00 0.00 86 1014.6
20260905030055 26 0 0.0 0.0 0.00 0.00 0.00 85 1014.5
20260905024551 26 0 0.0 0.0 0.00 0.00 0.00 85 1014.7
20260905023058 26 0 0.0 0.0 0.00 0.00 0.00 85 1014.7
20260905021552 27 0 0.0 0.0 0.00 0.00 0.00 83 1014.7
20260905020055 27 0 0.0 0.0 0.00 0.00 0.00 81 1014.6
20260905014557 27 0 0.0 0.0 0.00 0.00 0.00 79 1014.7
20260905013101 27 0 0.0 0.0 0.00 0.00 0.00 78 1014.4
20260905011553 28 0 0.0 1.6 0.00 0.00 0.00 78 1014.5
20260905010054 28 0 0.0 0.0 0.00 0.00 0.00 83 1014.5
20260905004600 28 0 0.0 0.0 0.00 0.00 0.00 82 1014.4
20260905003051 28 0 0.0 1.6 0.00 0.00 0.00 81 1014.4
20260905001554 29 0 0.0 0.0 0.00 0.00 0.00 79 1014.6
20260904234556 31 0 0.0 0.0 0.00 0.00 0.00 73 1014.3
20260904233053 32 0 0.0 0.0 0.00 0.00 0.00 69 1014.2
20260904231600 33 0 0.0 0.0 0.00 0.00 0.00 64 1013.9
20260904230056 33 0 0.0 1.6 0.00 0.00 0.00 58 1013.9
20260904224601 34 0 0.0 1.6 0.00 0.00 0.00 55 1013.8
20260904223059 35 217 0.0 4.8 0.00 0.00 0.00 54 1013.7
20260904221555 35 200 1.6 6.4 0.00 0.00 0.00 52 1013.7
20260904220112 35 213 0.0 8.0 0.00 0.00 0.00 52 1014.0
20260904214552 36 236 1.6 8.0 0.00 0.00 0.00 51 1014.1
20260904213055 36 246 3.2 8.0 0.00 0.00 0.00 51 1013.9
20260904211608 36 150 1.6 9.7 0.00 0.00 0.00 52 1014.0
20260904210053 36 226 3.2 8.0 0.00 0.00 0.00 50 1013.7
20260904204555 36 242 3.2 8.0 0.00 0.00 0.00 52 1014.1
20260904203055 36 163 1.6 8.0 0.00 0.00 0.00 51 1014.2
20260904201551 35 252 4.8 14.5 0.00 0.00 0.00 50 1014.2
20260904200100 36 0 3.2 11.3 0.00 0.00 0.00 51 1014.4
20260904194603 36 204 1.6 4.8 0.00 0.00 0.00 49 1014.7
20260904193110 36 196 3.2 11.3 0.00 0.00 0.00 48 1015.1
20260904191554 36 0 3.2 8.0 0.00 0.00 0.00 48 1015.4
20260904190059 36 155 3.2 6.4 0.00 0.00 0.00 49 1015.6
20260904184559 37 205 0.0 3.2 0.00 0.00 0.00 49 1015.7
20260904183108 36 0 0.0 4.8 0.00 0.00 0.00 51 1015.9
20260904181602 35 138 1.6 6.4 0.00 0.00 0.00 53 1016.0
20260904180123 35 153 3.2 6.4 0.00 0.00 0.00 55 1016.2
20260904174605 35 152 1.6 6.4 0.00 0.00 0.00 53 1016.5
20260904173059 35 0 0.0 6.4 0.00 0.00 0.00 52 1016.6
20260904171556 34 202 0.0 8.0 0.00 0.00 0.00 56 1016.7
20260904170058 34 151 1.6 8.0 0.00 0.00 0.00 58 1016.8
20260904164603 34 14 0.0 8.0 0.00 0.00 0.00 61 1016.8
20260904163059 33 341 0.0 6.4 0.00 0.00 0.00 61 1017.1
20260904161610 33 222 0.0 3.2 0.00 0.00 0.00 61 1017.3
20260904160054 32 196 1.6 8.0 0.00 0.00 0.00 64 1017.5
20260904154552 32 197 1.6 8.0 0.00 0.00 0.00 64 1017.7
20260904153101 31 0 3.2 8.0 0.00 0.00 0.00 67 1017.8
20260904151557 31 191 1.6 6.4 0.00 0.00 0.00 68 1017.7
20260904150059 31 0 0.0 4.8 0.00 0.00 0.00 69 1017.7
20260904144601 30 205 3.2 8.0 0.00 0.00 0.00 69 1017.7
20260904143100 30 190 1.6 6.4 0.00 0.00 0.00 72 1017.9
20260904141553 29 157 1.6 8.0 0.00 0.00 0.00 73 1017.8
20260904140058 29 161 3.2 8.0 0.00 0.00 0.00 76 1017.8
20260904134553 28 223 1.6 9.7 0.00 0.00 0.00 78 1017.6
20260904133057 27 233 1.6 9.7 0.00 0.00 0.00 80 1017.6
20260904131554 27 235 1.6 9.7 0.00 0.00 0.00 83 1017.6
20260904130053 26 180 0.0 4.8 0.00 0.00 0.00 87 1017.6
20260904124609 24 150 0.0 3.2 0.00 0.00 0.00 91 1017.6
20260904123056 23 0 0.0 1.6 0.00 0.00 0.00 93 1017.6
20260904121553 22 0 0.0 1.6 0.00 0.00 0.00 94 1017.7
20260904120107 22 0 0.0 0.0 0.00 0.00 0.00 94 1017.7
20260904114552 22 0 0.0 0.0 0.00 0.00 0.00 94 1017.6
20260904113056 21 0 0.0 0.0 0.00 0.00 0.00 94 1017.4
20260904111601 21 0 0.0 0.0 0.00 0.00 0.00 94 1017.4
20260904104556 21 0 0.0 0.0 0.00 0.00 0.00 93 1017.1
20260904103055 22 0 0.0 0.0 0.00 0.00 0.00 93 1016.9